Hovedside
METAR-TAF:

METAR-TAF

Lufthavner :

Sogndal, Norge

Sogndal lufthamn

breddegrad: 61-09N, lengdegrad: 007-08E, høyde over havet: 49 m

Gjeldene værobservasjon

Denne rapporten ble laget for 1 time og 8 minutter siden, klokken 17:50 UTC
Vind 5 kt fra Nordøst
Temperatur 9°C
Luftfuktighet 100%
Trykk 1024 hPa
Sikt 10 km eller mer
Få skyer i en høyde av 2500 ft
Brutte skyer i en høyde av 4200 ft
lette regnbyger

METAR: ENSG 221750Z 05005KT 9999 -SHRA FEW025 BKN042 09/09 Q1024 RMK WIND 3806FT 10017KT

Tid: 20:58 (18:58 UTC)


TAF: fraværende

Værobservasjoner og værvarsel for over 4000 flyplasser (METAR- og TAF-rapporter).

Tilgjengelige stasjoner er representert av de røde og gule prikkene på kartet.

Hold musepekeren over prikken for å se navnet på stasjonen.

Klikk så for å se værobservasjoner og -varsler.

For å forandre kartet kan du klikke på den grønne knappen med svart kryss for å zoome inn, på den grønne knappen med strek for å zoome ut, eller på de grønne pilene for å se tilstøtende kart.


METAR-TAF: